Stations météo

réclame
Mon MeteoGroup
Huelva, Espagne (8383): Température de l'air & dewpoint: 18.10.2018 07:00:00 - 24.10.2018 07:00:00 (CEST)Huelva, Espagne (8383): Vitesse du vent: 18.10.2018 07:00:00 - 24.10.2018 07:00:00 (CEST)Huelva, Espagne (8383): Direction du vent: 18.10.2018 07:00:00 - 24.10.2018 07:00:00 (CEST)Huelva, Espagne (8383): reduced air pressure: 18.10.2018 07:00:00 - 24.10.2018 07:00:00 (CEST)Huelva, Espagne (8383): visibility: 18.10.2018 07:00:00 - 24.10.2018 07:00:00 (CEST)Huelva, Espagne (8383): Quantités de précipitations: 18.10.2018 07:00:00 - 24.10.2018 07:00:00 (CEST)
Date & Time tt [°C] td [°C] ff [km/h] ff [knt] dd ppp [hPa] vv [km] rr [mm]
24.10.2018 07:00:00 - - - - - - - -
24.10.2018 06:00:00 16,6 16,1 2 1 NNE 1024,3 3,8 0,0
24.10.2018 05:00:00 17,1 16,6 5 3 NNE 1024,1 - -
24.10.2018 04:00:00 18,4 16,9 4 2 N 1024,6 12 0,0
24.10.2018 03:00:00 18,3 17,1 5 3 W 1024,7 12 0,0
24.10.2018 02:00:00 18,7 17,2 4 2 N 1024,9 12 -
24.10.2018 01:00:00 19,1 17,2 2 1 N 1024,9 11 0,0
24.10.2018 00:00:00 19,8 17,4 4 2 N 1024,9 13 0,0
23.10.2018 23:00:00 20,1 17,3 2 1 NNW 1024,7 15 -
23.10.2018 22:00:00 20,7 17,3 4 2 NNE 1024,3 15 0,0
23.10.2018 21:00:00 20,9 17,1 4 2 NNE 1024,1 18 0,0
23.10.2018 20:00:00 21,6 17,4 4 2 NE 1023,7 19 -
23.10.2018 19:00:00 22,6 17,3 4 2 ENE 1023,2 19 0,0
23.10.2018 18:00:00 23,1 16,9 5 3 ENE 1023,4 20 0,0
23.10.2018 17:00:00 22,9 16,7 5 3 ENE 1023,5 20 -
23.10.2018 16:00:00 22,9 17,1 4 2 E 1023,2 20 0,0
23.10.2018 15:00:00 23,0 17,2 5 3 E 1023,5 19 0,0
23.10.2018 14:00:00 22,9 16,7 4 2 E 1023,8 11 -
23.10.2018 13:00:00 22,1 16,8 4 2 NE 1024,3 19 0,0
23.10.2018 12:00:00 19,9 17,3 5 3 NE 1024,2 15 0,0
23.10.2018 11:00:00 18,8 16,6 8 4 NE 1024,1 9 -
23.10.2018 10:00:00 17,6 16,1 4 2 NE 1023,6 11 0,0
23.10.2018 09:00:00 16,9 15,8 5 3 NNE 1022,4 13 0,0
23.10.2018 08:00:00 16,7 15,9 4 2 NNE 1021,6 12 -
23.10.2018 07:00:00 16,8 16,0 4 2 NE 1021,3 12 0,0
23.10.2018 06:00:00 17,2 16,1 8 4 NE 1021,1 13 0,0
23.10.2018 05:00:00 17,8 16,5 8 4 NE 1020,6 14 -
23.10.2018 04:00:00 17,3 16,0 5 3 NE 1020,6 13 0,0
23.10.2018 03:00:00 17,2 15,9 2 1 WSW 1021,1 16 0,0
23.10.2018 02:00:00 17,5 15,7 5 3 ESE 1020,9 17 -
23.10.2018 01:00:00 17,9 16,4 5 3 NNE 1021,1 12 0,0
23.10.2018 00:00:00 18,3 16,3 2 1 NNE 1021,0 12 0,0
22.10.2018 23:00:00 19,0 16,6 4 2 ENE 1020,4 14 -
22.10.2018 22:00:00 20,0 16,2 8 4 WNW 1020,3 16 0,0
22.10.2018 21:00:00 20,9 16,1 4 2 W 1020,1 1,8 0,0
22.10.2018 20:00:00 22,7 16,7 5 3 WSW 1019,2 17 -
22.10.2018 19:00:00 25,1 16,5 4 2 N 1019,0 20 0,0
22.10.2018 18:00:00 25,5 16,1 5 3 NNW 1018,9 19 0,0
22.10.2018 17:00:00 25,1 15,7 2 1 SE 1019,0 19 -
22.10.2018 16:00:00 25,2 16,3 5 3 E 1018,9 19 0,2
22.10.2018 15:00:00 25,3 16,7 11 6 W 1019,5 20 0,0
22.10.2018 14:00:00 25,0 15,6 9 5 S 1020,3 12 -
22.10.2018 13:00:00 24,2 16,5 9 5 E 1020,6 20 0,0
22.10.2018 12:00:00 21,9 16,4 8 4 ENE 1020,5 20 0,0
22.10.2018 11:00:00 19,3 15,2 8 4 ENE 1020,9 12 -
22.10.2018 10:00:00 16,8 14,4 9 5 NE 1020,5 16 0,0
22.10.2018 09:00:00 15,1 13,8 5 3 NNE 1019,6 20 0,0
22.10.2018 08:00:00 15,1 14,0 4 2 NNE 1019,5 18 -
22.10.2018 07:00:00 15,4 14,3 8 4 NE 1019,5 20 0,0
22.10.2018 06:00:00 15,9 14,6 5 3 NNE 1019,2 20 0,0
22.10.2018 05:00:00 16,3 15,0 4 2 N 1019,2 20 -
22.10.2018 04:00:00 17,1 15,4 5 3 NNE 1019,3 20 0,0
22.10.2018 03:00:00 17,9 16,1 8 4 NNE 1019,4 20 0,0
22.10.2018 02:00:00 17,7 16,4 5 3 NE 1019,7 20 -
22.10.2018 01:00:00 17,3 15,8 5 3 NE 1019,7 19 0,0
22.10.2018 00:00:00 18,2 15,6 5 3 NNE 1019,5 20 0,0
21.10.2018 23:00:00 18,4 15,8 5 3 N 1018,9 19 -
21.10.2018 22:00:00 18,3 16,1 5 3 NE 1018,6 20 0,0
21.10.2018 21:00:00 19,1 16,3 4 2 NNW 1018,2 20 0,0
21.10.2018 20:00:00 20,8 15,3 8 4 SW 1017,7 20 -
21.10.2018 19:00:00 22,7 15,0 11 6 SSW 1017,2 20 0,0
21.10.2018 18:00:00 24,0 16,3 15 8 S 1017,2 20 0,0
21.10.2018 17:00:00 22,8 14,1 11 6 SE 1017,2 20 -
21.10.2018 16:00:00 22,9 16,7 13 7 ESE 1017,2 20 0,0
21.10.2018 15:00:00 22,0 16,5 15 8 E 1017,5 20 0,0
21.10.2018 14:00:00 21,6 16,5 13 7 E 1018,2 20 -
21.10.2018 13:00:00 20,8 16,6 15 8 E 1018,4 20 0,0
21.10.2018 12:00:00 19,6 17,2 15 8 E 1018,3 20 0,0
21.10.2018 11:00:00 18,2 16,4 9 5 ENE 1018,0 20 -
21.10.2018 10:00:00 15,4 15,2 8 4 NE 1017,7 19 0,0
21.10.2018 09:00:00 14,2 13,9 5 3 NE 1016,8 14 0,0
21.10.2018 08:00:00 14,5 14,0 5 3 NE 1016,3 16 -
21.10.2018 07:00:00 14,7 14,4 9 5 NE 1016,2 20 0,0
21.10.2018 06:00:00 14,6 14,1 9 5 NE 1015,8 20 0,0
21.10.2018 05:00:00 14,9 14,4 8 4 NE 1015,9 20 -
21.10.2018 04:00:00 14,7 14,2 8 4 NE 1016,0 20 0,0
21.10.2018 03:00:00 14,0 13,5 4 2 NNE 1016,0 19 0,0
21.10.2018 02:00:00 14,3 13,8 5 3 NE 1016,3 20 -
21.10.2018 01:00:00 14,8 14,2 8 4 ENE 1016,4 20 0,0
21.10.2018 00:00:00 14,7 13,9 5 3 NE 1016,4 20 0,0
20.10.2018 23:00:00 14,6 13,6 5 3 NE 1015,9 20 -
20.10.2018 22:00:00 14,5 13,5 5 3 NNE 1015,5 20 0,0
20.10.2018 21:00:00 15,0 13,9 4 2 NNE 1015,4 20 0,0
20.10.2018 20:00:00 15,2 13,9 8 4 NNE 1015,5 20 -
20.10.2018 19:00:00 15,7 13,9 8 4 NNE 1014,7 20 0,0
20.10.2018 18:00:00 14,9 13,4 13 7 NNE 1014,5 20 2,0
20.10.2018 17:00:00 14,8 14,2 18 10 NE 1015,1 4,8 -
20.10.2018 16:00:00 14,9 14,1 11 6 NE 1015,3 11 3,0
20.10.2018 15:00:00 15,5 13,3 13 7 ENE 1015,2 11 0,6
20.10.2018 14:00:00 18,8 12,3 11 6 ENE 1015,5 20 -
20.10.2018 13:00:00 19,7 12,7 13 7 ENE 1015,3 20 0,0
20.10.2018 12:00:00 17,6 12,9 9 5 ENE 1015,6 20 0,0
20.10.2018 11:00:00 15,4 12,2 9 5 NNE 1015,1 20 -
20.10.2018 10:00:00 13,8 11,7 5 3 NNE 1014,9 20 0,0
20.10.2018 09:00:00 13,4 10,7 5 3 N 1014,5 20 0,0
20.10.2018 08:00:00 12,1 10,5 2 1 NW 1014,4 20 -
20.10.2018 07:00:00 12,8 10,5 5 3 NNE 1013,8 20 0,0
20.10.2018 06:00:00 12,4 10,3 5 3 NNE 1013,6 20 0,0
20.10.2018 05:00:00 12,4 10,6 5 3 NNE 1013,5 20 -
20.10.2018 04:00:00 12,6 10,8 9 5 NE 1013,8 20 0,0
20.10.2018 03:00:00 13,2 11,1 4 2 ENE 1013,8 20 0,0
20.10.2018 02:00:00 13,7 11,6 5 3 NNE 1014,0 20 -
20.10.2018 01:00:00 14,2 11,7 8 4 NE 1014,1 20 0,0
20.10.2018 00:00:00 15,2 11,8 5 3 ENE 1014,1 20 0,0
19.10.2018 23:00:00 15,7 11,5 9 5 NE 1013,8 20 -
19.10.2018 22:00:00 16,9 11,0 5 3 ENE 1013,4 20 0,0
19.10.2018 21:00:00 18,1 10,5 5 3 NE 1013,1 20 0,0
19.10.2018 20:00:00 19,5 9,9 4 2 ENE 1012,2 20 -
19.10.2018 19:00:00 21,4 9,0 11 6 E 1011,4 20 0,0
19.10.2018 18:00:00 22,2 8,0 11 6 E 1011,1 20 0,0
19.10.2018 17:00:00 22,2 7,6 11 6 E 1011,1 20 -
19.10.2018 16:00:00 21,8 8,0 15 8 E 1011,2 20 0,0
19.10.2018 15:00:00 20,7 9,0 15 8 E 1011,6 20 0,0
19.10.2018 14:00:00 19,9 11,6 11 6 ENE 1012,0 25 -
19.10.2018 13:00:00 19,6 12,1 9 5 ENE 1011,7 20 0,0
19.10.2018 12:00:00 18,4 11,9 13 7 E 1012,0 20 0,0
19.10.2018 11:00:00 16,9 11,8 13 7 E 1011,6 18 -
19.10.2018 10:00:00 15,2 12,0 11 6 E 1011,6 20 0,0
19.10.2018 09:00:00 13,5 12,1 8 4 NE 1010,6 20 0,0
19.10.2018 08:00:00 13,6 12,0 4 2 ENE 1010,7 25 -
19.10.2018 07:00:00 13,7 12,1 5 3 E 1010,6 20 0,0
19.10.2018 06:00:00 13,9 11,6 11 6 NE 1010,3 20 0,0
19.10.2018 05:00:00 13,7 11,9 8 4 NE 1010,2 20 -
19.10.2018 04:00:00 13,8 12,0 8 4 NNE 1010,8 20 0,0
19.10.2018 03:00:00 13,7 11,7 8 4 NE 1010,6 20 0,0
19.10.2018 02:00:00 13,9 11,9 8 4 NE 1010,8 20 -
19.10.2018 01:00:00 14,4 11,9 9 5 E 1010,9 20 0,0
19.10.2018 00:00:00 14,5 12,0 9 5 ENE 1011,2 20 0,0
18.10.2018 23:00:00 14,3 12,0 8 4 NE 1010,7 20 -
18.10.2018 22:00:00 14,4 12,3 8 4 NE 1010,3 20 0,0
18.10.2018 21:00:00 14,7 12,0 8 4 ENE 1010,1 20 0,0
18.10.2018 20:00:00 15,7 12,6 8 4 ENE 1009,2 20 -
18.10.2018 19:00:00 16,3 12,3 8 4 NE 1008,3 20 0,0
18.10.2018 18:00:00 16,3 13,2 8 4 NNE 1008,2 20 0,0
18.10.2018 17:00:00 15,5 12,6 5 3 NNE 1008,3 17 -
18.10.2018 16:00:00 15,9 13,7 8 4 SE 1007,9 20 0,4
18.10.2018 15:00:00 16,8 12,9 2 1 ENE 1007,9 15 0,2
18.10.2018 14:00:00 16,7 13,2 4 2 NW 1008,3 20 -
18.10.2018 13:00:00 15,9 13,0 4 2 SSE 1008,6 20 0,0
18.10.2018 12:00:00 15,6 13,1 8 4 NNE 1008,3 20 0,0
18.10.2018 11:00:00 15,0 12,9 13 7 N 1008,6 20 -
18.10.2018 10:00:00 14,3 13,2 13 7 WNW 1008,1 19 0,0
18.10.2018 09:00:00 14,3 13,3 13 7 WNW 1008,0 15 0,4
18.10.2018 08:00:00 14,2 13,1 15 8 WNW 1007,1 18 -
18.10.2018 07:00:00 14,4 12,9 8 4 WNW 1008,4 20 0,0

tt = Température de l'air
td = dewpoint
ff = Vitesse du vent
dd = Direction du vent
ppp = reduced air pressure
vv = visibility
rr = Quantités de précipitations

stations d'obs. à proximité